sat.trackr.live / text

‹ back to catalog

STARLINK-2459

NORAD 48119 · 2021-027AD

PAYLOAD ACTIVE UNKNOWN

§ Identity

Operator
Country
US
Launch date
2021-04-07
Launch site
AFETR
Launch vehicle
Mass (kg)
RCS (m²)

Purposes: comms

External: N2YO · Heavens-Above · Gunter

§ Orbital elements

Epoch: 2026-05-25T01:19:59.716128Z

Period
94.01 min
Inclination
53.1576°
Eccentricity
0.0001247
Mean motion
15.31710652 rev/d
Perigee alt
469.9 km
Apogee alt
471.6 km
Semi-major
6,848.8 km
B*
6.0363e-5
RAAN
157.2355°
Arg perigee
89.6213°
Mean anomaly
270.4931°
Rev number
28,437

§ Raw data

STARLINK-24591 48119U 21027AD  26145.05555227  .00001509  00000+0  60363-4 0  99902 48119  53.1576 157.2355 0001247  89.6213 270.4931 15.31710652284374

JSON: /api/v1/satellites/48119 · /tle

For live sub-satellite position, see the globe view (requires WebGL).

§ Visibility from observer

Set your observer location to see the next 7 days of passes ≥ 10°. The values pass through the URL so the page stays shareable.

No JS? Fill the form by hand. The geolocation button needs JavaScript.